Location: Tr�vern
(48.0333°N, 4.6000°W)
Time: 18:16:23
(UTC+00:00)

Cosmos 1818 - Pass Details

Date: 14 July 2020
Orbit: 777 x 796 km, 65.0° (Epoch: 11 August)

Event Time Altitude Azimuth Distance (km) Brightness Sun altitude
Rises 02:57:02 0° 322° (NW) 3,309 7.0 -12.4°
Reaches altitude 10° 02:59:29 10° 325° (NW) 2,376 6.3 -12.2°
Maximum altitude 03:04:58 74° 50° (NE) 832 3.9 -11.6°
Drops below altitude 10° 03:10:24 10° 136° (SE) 2,360 6.0 -11.0°
Sets 03:12:49 0° 138° (SE) 3,284 6.7 -10.8°
